Overview Statistics Trail Chart Weather Telemetry Raw packets
 

This is the latest recevied weather packets stored in our database for station/object KD8DNS. If no packets are shown the sender has not sent any weather packets the latest 10 day(s).

<< 64 65 66 67 68 69 70 >>
Time Temp. Humidity Pressure Rain* Wind** Luminosity Snow
1788222972 27.78° C 81% 1020.5 hPa 0 mm - 0 W/m² -
1788222670 28.33° C 81% 1020.6 hPa 0 mm - 0 W/m² -
1788222370 28.33° C 80% 1020.5 hPa 0 mm - 0 W/m² -
1788222064 28.33° C 80% 1020.4 hPa 0 mm - 0 W/m² -
1788221760 28.33° C 80% 1020.4 hPa 0 mm - 0 W/m² -
1788221455 28.89° C 79% 1020.5 hPa 0 mm - 0 W/m² -
1788221149 28.89° C 79% 1020.6 hPa 0 mm - 0 W/m² -
1788220845 28.89° C 78% 1020.5 hPa 0 mm - 3 W/m² -
1788220539 29.44° C 77% 1020.3 hPa 0 mm - 7 W/m² -
1788220235 29.44° C 76% 1020.2 hPa 0 mm - 10 W/m² -
1788219928 29.44° C 76% 1020.2 hPa 0 mm - 15 W/m² -
1788219624 30° C 75% 1020.3 hPa 0 mm - 18 W/m² -
1788219319 30° C 74% 1020.3 hPa 0 mm - 22 W/m² -
1788219015 30° C 73% 1020.3 hPa 0 mm - 26 W/m² -
1788218710 30.56° C 73% 1020.4 hPa 0 mm - 32 W/m² -
1788218406 30.56° C 73% 1020.4 hPa 0 mm - 40 W/m² -
1788218102 30.56° C 73% 1020.1 hPa 0 mm - 47 W/m² -
1788217798 30.56° C 72% 1020.1 hPa 0 mm - 50 W/m² -
1788217493 30.56° C 72% 1020.2 hPa 0 mm - 56 W/m² -
1788217187 30.56° C 72% 1020.2 hPa 0 mm - 59 W/m² -
1788216883 30.56° C 73% 1020 hPa 0 mm - 55 W/m² -
1788216577 30.56° C 72% 1020 hPa 0 mm - 52 W/m² -
1788216278 30° C 72% 1019.9 hPa 0 mm - 49 W/m² -
1788215973 30° C 75% 1019.9 hPa 0 mm - 42 W/m² -
1788215668 30° C 75% 1019.7 hPa 0 mm - 45 W/m² -

* Rain latest hour (hover to see other rain measurements)
** Current wind speed in m/s (hover to see current wind gust speed)